Location: Bogotá
(4.6533°N, 74.0837°W)
Time: 11:23:09
(UTC+00:00)

ISS - Pass Details

Date: 10 March 2026
Orbit: 416 x 427 km, 51.6° (Epoch: 5 March)

Event Time Altitude Azimuth Distance (km) Brightness Sun altitude
Exits shadow 10:43:29 - 290° (WNW) 1,737 -1.2 -6.1°
Reaches altitude 10° 10:44:18 10° 282° (WNW) 1,478 -1.6 -5.9°
Maximum altitude 10:46:44 19° 235° (SW) 1,058 -2.2 -5.3°
Drops below altitude 10° 10:49:10 10° 188° (S) 1,481 -1.0 -4.7°
Sets 10:51:40 0° 169° (SSE) 2,345 0.2 -4.0°
